Weather History for Lebanon, NH

Change the Weather History Date:

Tuesday, April 15, 2014

  Actual Average Record
Temperature  
Mean Temperature 50 °F -  
Max Temperature 64 °F 58 °F 82 °F (1941)
Min Temperature 35 °F 30 °F 15 °F (1940)
Degree Days  
Heating Degree Days 16    
Moisture  
Dew Point 49 °F    
Average Humidity 80    
Maximum Humidity 93    
Minimum Humidity 67    
Precipitation  
Precipitation 0.52 in - - ()
Sea Level Pressure  
Sea Level Pressure 29.63 in    
Wind  
Wind Speed 14 mph (SW)    
Max Wind Speed 30 mph    
Max Gust Speed 41 mph    
Visibility 7 miles    
Events Rain , Snow    
Averages and records for this station are not official NWS values.
T = Trace of Precipitation, MM = Missing Value Source: NWS Daily Summary

Daily Weather History Graph

Daily Weather History Graph

Search for Another Location

Airport:

Trip Planner

Search our weather history database for the weather conditions in past years. The results will help you decide how hot, cold, wet, or windy it might be!

Date:

Astronomy

Apr. 15, 2014 Rise Set
Actual Time 6:06 AM EDT 7:32 PM EDT
Civil Twilight 5:36 AM EDT 8:02 PM EDT
Nautical Twilight 5:00 AM EDT 8:38 PM EDT
Astronomical Twilight 4:22 AM EDT 9:17 PM EDT
Moon 8:11 PM EDT (4/15) 6:12 AM EDT (4/15)
Length of Visible Light 14h 25m
Length of Day
13h 26m
Full, 100% of the Moon is Illuminated
Apr 15
Full
Apr 22
Last Quarter
Apr 29
New
May 6
First Quarter
May 14
Full

Hourly Weather History & Observations

Time (EDT) Temp. Windchill Dew Point Humidity Pressure Visibility Wind Dir Wind Speed Gust Speed Precip Events Conditions
12:53 AM 61.0 °F - 50.0 °F 67% 29.74 in 10.0 mi South 16.1 mph - N/A   Partly Cloudy
1:53 AM 61.0 °F - 51.1 °F 70% 29.75 in 10.0 mi South 16.1 mph 23.0 mph N/A   Partly Cloudy
2:53 AM 61.0 °F - 52.0 °F 72% 29.73 in 10.0 mi South 18.4 mph - N/A   Partly Cloudy
3:36 AM 62.1 °F - 53.1 °F 72% 29.75 in 10.0 mi SSW 12.7 mph 23.0 mph N/A   Overcast
3:53 AM 62.1 °F - 53.1 °F 72% 29.72 in 10.0 mi SSW 11.5 mph 17.3 mph N/A   Mostly Cloudy
4:16 AM 62.1 °F - 53.1 °F 72% 29.75 in 10.0 mi South 12.7 mph - N/A   Scattered Clouds
4:49 AM 62.6 °F - 53.6 °F 72% 29.73 in 10.0 mi South 15.0 mph 20.7 mph N/A   Mostly Cloudy
4:53 AM 62.1 °F - 53.1 °F 72% 29.71 in 10.0 mi South 15.0 mph - N/A   Mostly Cloudy
5:53 AM 63.0 °F - 54.0 °F 72% 29.70 in 10.0 mi South 15.0 mph 21.9 mph N/A   Overcast
6:53 AM 63.0 °F - 54.0 °F 72% 29.68 in 10.0 mi South 16.1 mph - N/A   Overcast
7:53 AM 64.0 °F - 54.0 °F 70% 29.66 in 10.0 mi South 10.4 mph - N/A   Overcast
8:53 AM 63.0 °F - 55.9 °F 78% 29.63 in 6.0 mi South 16.1 mph 26.5 mph 0.00 in Rain Light Rain
9:53 AM 63.0 °F - 57.0 °F 81% 29.61 in 10.0 mi South 18.4 mph 25.3 mph 0.00 in   Overcast
10:53 AM 64.0 °F - 57.0 °F 78% 29.59 in 9.0 mi South 17.3 mph - N/A   Overcast
11:53 AM 64.9 °F - 55.9 °F 73% 29.54 in 10.0 mi South 21.9 mph 33.4 mph N/A   Overcast
12:53 PM 63.0 °F - 59.0 °F 87% 29.51 in 3.0 mi South 13.8 mph - 0.02 in Rain Light Rain
1:53 PM 64.0 °F - 57.9 °F 80% 29.47 in 10.0 mi South 17.3 mph 27.6 mph 0.02 in Rain Light Rain
2:53 PM 64.9 °F - 57.9 °F 78% 29.46 in 8.0 mi SSW 29.9 mph 41.4 mph 0.01 in Rain Light Rain
3:06 PM 64.0 °F - 59.0 °F 84% 29.46 in 5.0 mi South 20.7 mph 29.9 mph 0.02 in Rain Light Rain
3:33 PM 64.0 °F - 57.9 °F 80% 29.46 in 8.0 mi South 20.7 mph 26.5 mph 0.02 in Rain Light Rain
3:42 PM 63.0 °F - 59.0 °F 87% 29.46 in 6.0 mi South 17.3 mph 27.6 mph 0.03 in Rain Light Rain
3:53 PM 64.0 °F - 59.0 °F 84% 29.44 in 5.0 mi South 16.1 mph 27.6 mph 0.03 in Rain Light Rain
4:53 PM 63.0 °F - 57.9 °F 84% 29.43 in 9.0 mi SSW 15.0 mph 27.6 mph 0.01 in   Overcast
5:04 PM 63.0 °F - 57.9 °F 84% 29.45 in 3.0 mi SSW 11.5 mph 19.6 mph 0.00 in Rain Light Rain
5:21 PM 62.1 °F - 57.9 °F 86% 29.47 in 2.0 mi West 19.6 mph 26.5 mph 0.03 in Rain Light Rain
5:43 PM 55.9 °F - 50.0 °F 80% 29.51 in 2.0 mi Variable 6.9 mph - 0.09 in Rain Light Rain
5:53 PM 55.0 °F - 50.0 °F 83% 29.50 in 3.0 mi SW 4.6 mph - 0.10 in Rain Light Rain
6:17 PM 54.0 °F - 48.0 °F 80% 29.54 in 5.0 mi SW 8.1 mph - 0.03 in Rain Light Rain
6:30 PM 53.1 °F - 46.9 °F 80% 29.56 in 10.0 mi SW 10.4 mph - 0.04 in Rain Light Rain
6:53 PM 51.1 °F - 46.0 °F 83% 29.57 in 2.5 mi West 5.8 mph - 0.08 in Rain Light Rain
7:00 PM 51.1 °F - 46.0 °F 83% 29.58 in 4.0 mi West 4.6 mph - 0.01 in Rain Light Rain
7:53 PM 48.0 °F - 42.1 °F 80% 29.62 in 3.0 mi NNW 11.5 mph 20.7 mph 0.05 in Rain Light Rain
8:13 PM 46.0 °F 41.0 °F 41.0 °F 83% 29.65 in 3.0 mi NNW 10.4 mph - 0.01 in Rain Light Rain
8:31 PM 45.0 °F 38.9 °F 41.0 °F 86% 29.66 in 3.0 mi West 12.7 mph 17.3 mph 0.02 in Rain Light Rain
8:53 PM 43.0 °F 36.4 °F 37.9 °F 82% 29.69 in 3.0 mi WNW 12.7 mph - 0.04 in Rain Light Rain
9:03 PM 42.1 °F 35.2 °F 37.0 °F 82% 29.71 in 6.0 mi West 12.7 mph 19.6 mph 0.01 in Rain Light Rain
9:43 PM 39.9 °F 32.9 °F 35.1 °F 83% 29.75 in 5.0 mi West 11.5 mph - 0.04 in Rain Light Rain
9:53 PM 39.0 °F 33.4 °F 35.1 °F 86% 29.75 in 5.0 mi WNW 8.1 mph - 0.05 in Rain Light Rain
10:23 PM 37.9 °F 30.9 °F 35.1 °F 89% 29.77 in 5.0 mi WNW 10.4 mph - 0.03 in Rain Light Rain
10:53 PM 37.0 °F 31.6 °F 34.0 °F 89% 29.79 in 5.0 mi West 6.9 mph - 0.06 in Rain Light Rain
11:34 PM 36.0 °F 33.3 °F 33.1 °F 89% 29.79 in 6.0 mi West 3.5 mph - 0.04 in Snow Light Snow
11:49 PM 35.6 °F 32.8 °F 33.8 °F 93% 29.79 in 6.0 mi WNW 3.5 mph - 0.05 in Snow Light Snow
11:53 PM 36.0 °F 33.3 °F 33.1 °F 89% 29.79 in 6.0 mi West 3.5 mph - 0.05 in Snow Light Snow